sat.trackr.live / text

‹ back to catalog

HULIANWANG DIGUI-165

NORAD 68657 · 2026-076B

PAYLOAD ACTIVE UNKNOWN

§ Identity

Operator
Country
PRC
Launch date
2026-04-08
Launch site
TAISC
Launch vehicle
Mass (kg)
RCS (m²)

External: N2YO · Heavens-Above · Gunter

§ Orbital elements

Epoch: 2026-05-25T04:15:46.958112Z

Period
107.95 min
Inclination
86.5001°
Eccentricity
0.0001653
Mean motion
13.33928948 rev/d
Perigee alt
1,130.7 km
Apogee alt
1,133.2 km
Semi-major
7,510.1 km
B*
1.2987e-4
RAAN
51.6746°
Arg perigee
86.8642°
Mean anomaly
273.2687°
Rev number
632

§ Raw data

HULIANWANG DIGUI-1651 68657U 26076B   26145.17762683  .00000079  00000+0  12987-3 0  99962 68657  86.5001  51.6746 0001653  86.8642 273.2687 13.33928948  6328

JSON: /api/v1/satellites/68657 · /tle

For live sub-satellite position, see the globe view (requires WebGL).

§ Visibility from observer

Set your observer location to see the next 7 days of passes ≥ 10°. The values pass through the URL so the page stays shareable.

No JS? Fill the form by hand. The geolocation button needs JavaScript.